SCP
0 0 0 0 0 0 0 0 0 0 0 0 0 0 0 0 0 0 0 0 0 0 0 0 0 0 0 0 0 0 0 0 0 0 0 0 0 0 0 0 0 0 0
0 0 0 0 0 0 0 0 0 0 0 0 0 0 0 0 0 0 0 0 0 0 0 0 0 0 0 0 0 0 0 0 0 0 0 0 0 0 0 0 0 0 0
0 0 0 0 0 0 0 0 0 0 0 0 0 0 0 0 0 0 0 0 0 0 0 0 0 0 0 0 0 0 0 0 0 0 0 0 0 0 0 0 0 0 0
0 0 0 0 0 0 0 0 0 0 0 0 0 0 0 0 0 0 0 0 0 0 0 0 0 0 0 0 0 0 0 0 0 0 0 0 0 0 0 0 0 0 0
0 0 0 0 0 0 0 0 0 0 0 0 0 0 0 0 0 0 0 0 0 0 0 0 0 0 0 0 0 0 0 0 0 0 0 0 0 0 0 0 0 0 0
0 0 0 0 0 0 0 0 0 0 0 0 0 0 0 0 0 0 0 0 0 0 0 0 0 0 0 0 0 0 0 0 0 0 0 0 0 0 0 0 0 0 0
0 0 0 0 0 0 0 0 0 0 0 0 0 0 0 0 0 0 0 0 0 0 0 0 0 0 0 0 0 0 0 0 0 0 0 0 0 0 0 0 0 0 0
0 0 0 0 0 0 0 0 0 0 0 0 0 0 0 0 0 0 0 0 0 0 0 0 0 0 0 0 0 0 0 0 0 0 0 0 0 0 0 0 0 0 0
0 0 0 0 0 0 0 0 0 0 0 0 0 0 0 0 0 0 0 0 0 0 0 0 0 0 0 0 0 0 0 0 0 0 0 0 0 0 0 0 0 0 0
0 0 0 0 0 0 0 0 0 0 0 0 0 0 0 0 0 0 0 0 0 0 0 0 0 0 0 0 0 0 0 0 0 0 0 0 0 0 0 0 0 0 0
0 0 0 0 0 0 0 0 0 0 0 0 0 0 0 0 0 0 0 0 0 0 0 0 0 0 0 0 0 0 0 0 0 0 0 0 0 0 0 0 0 0 0
0 0 0 0 0 0 0 0 0 0 0 0 0 0 0 0 0 0 0 0 0 0 0 0 0 0 0 0 0 0 0 0 0 0 0 0 0 0 0 0 0 0 0
0 0 0 0 0 0 0 0 0 0 0 0 0 0 0 0 0 0 0 0 0 0 0 0 0 0 0 0 0 0 0 0 0 0 0 0 0 0 0 0 0 0 0
0 0 0 0 0 0 0 0 0 0 0 0 0 0 0 0 0 0 0 0 0 0 0 0 0 0 0 0 0 0 0 0 0 0 0 0 0 0 0 0 0 0 0
0 0 0 0 0 0 0 0 0 0 0 0 0 0 0 0 0 0 0 0 0 0 0 0 0 0 0 0 0 0 0 0 0 0 0 0 0 0 0 0 0 0 0
0 0 0 0 0 0 0 0 0 0 0 0 0 0 0 0 0 0 0 0 0 0 0 0 0 0 0 0 0 0 0 0 0 0 0 0 0 0 0 0 0 0 0
0 0 0 0 0 0 0 0 0 0 0 0 0 0 0 0 0 0 0 0 0 0 0 0 0 0 0 0 0 0 0 0 0 0 0 0 0 0 0 0 0 0 0
0 0 0 0 0 0 0 0 0 0 0 0 0 0 0 0 0 0 0 0 0 0 0 0 0 0 0 0 0 0 0 0 0 0 0 0 0 0 0 0 0 0 0
0 0 0 0 0 0 0 0 0 0 0 0 0 0 0 0 0 0 0 0 0 0 0 0 0 0 0 0 0 0 0 0 0 0 0 0 0 0 -0 0 0 0 0
0 0 0 0 0 0 0 0 0 0 0 0 0 0 0 0 0 0 0 0 0 0 0 0 0 0 0 0 0 0 0 0 0 0 0 -0 -0 -0 0 0 0 -0 -0
0 0 0 0 0 0 0 0 0 0 0 0 0 0 0 0 0 0 0 0 0 0 0 0 0 0 0 0 0 0 0 0 0 0 0 0 0 0 0 0 0 -0 0
0 0 0 0 0 0 0 0 0 0 0 0 0 0 0 0 0 0 0 0 0 0 0 0 0 0 0 0 0 0 0 0 0 0 0 0 -0 0 0 0 0 0 0
0 0 0 0 0 0 -0 -0 0 0 0 0 0 0 0 0 0 0 0 0 0 0 0 0 0 0 0 0 0 0 0 0 0 0 0 0 0 0 0 0 0 0 0
0 0 0 0 0 -0 -0 -0 0 0 0 0 0 0 0 0 0 -0 0 0 0 0 0 0 0 0 0 0 0 0 0 0 0 0 0 0 0 0 0 0 0 0 0
0 0 0 0 -0 0 -0 0 0 0 0 0 0 0 0 0 0 0 0 0 0 0 0 0 0 0 0 0 0 0 0 0 0 0 0 0 0 0 0 0 0 0 0
0 0 0 0 -0 -0 0 0 0 0 0 0 0 0 0 0 0 0 0 0 0 0 0 0 0 0 0 0 0 0 0 0 0 0 0 0 0 0 0 0 0 0 0
Wind_Speed_500mb
42 37 30 27 28 25 19 17 16 16 12 11 17 23 24 22 19 18 21 23 21 24 27 30 36 38 43 40 42 44 44 39 44 39 46 42 53 45 48 35 37 33 25
39 35 30 28 26 22 18 19 20 17 13 17 20 24 22 21 22 22 25 24 25 28 28 33 37 39 42 41 40 40 42 44 42 38 43 41 41 41 45 37 35 36 34
40 33 32 29 26 22 18 15 15 14 14 19 22 24 21 21 24 26 29 28 27 30 32 37 39 43 43 41 37 27 41 42 44 40 43 45 46 54 44 40 37 37 35
40 35 33 30 26 22 18 17 18 15 18 22 25 23 24 24 26 29 30 28 28 27 32 35 39 45 45 42 34 25 39 38 38 41 40 48 50 50 42 34 38 38 41
40 35 31 29 26 21 19 20 20 18 21 25 24 22 23 25 27 30 28 25 26 28 30 37 44 47 42 39 34 30 30 34 38 40 42 50 55 50 41 33 33 35 39
44 39 32 28 24 22 20 22 22 22 22 23 20 22 23 22 23 24 22 23 26 27 33 42 52 50 44 36 36 36 34 32 37 42 46 49 46 46 48 39 34 36 40
43 38 33 28 27 25 23 24 24 23 23 19 18 21 21 21 23 21 23 26 26 32 38 47 50 45 42 43 42 41 41 46 43 47 48 48 45 48 42 40 43 39 38
45 39 33 31 29 26 25 27 25 23 21 16 12 14 7 21 23 26 28 28 32 36 41 51 47 47 43 43 45 44 47 52 54 44 39 43 43 39 42 46 47 46 45
49 40 34 29 25 24 26 24 21 18 18 16 13 9 9 7 21 20 24 27 29 35 48 44 44 41 41 45 48 46 54 53 46 38 38 40 42 42 44 48 50 50 47
50 43 35 29 27 25 22 20 20 18 13 13 14 18 16 18 10 15 19 28 29 39 38 35 36 37 48 47 50 57 54 38 33 37 41 44 46 46 47 48 49 49 43
51 44 37 33 28 26 22 17 17 13 12 10 12 16 15 16 17 13 30 23 32 32 32 27 33 36 43 49 52 45 41 40 42 44 47 48 47 48 47 47 48 37 40
52 46 41 36 32 27 24 19 13 14 10 8 7 9 13 11 17 14 23 36 36 28 36 26 27 31 38 45 41 39 37 40 43 44 45 47 47 47 50 49 42 37 40
55 52 47 43 36 33 24 17 11 8 5 6 7 10 14 18 19 19 22 31 35 33 20 20 23 29 37 40 42 48 44 45 45 44 43 46 49 50 50 49 45 43 42
63 56 53 46 38 30 22 15 8 5 3 4 7 11 14 20 25 28 24 28 36 27 28 30 30 29 39 43 48 51 47 47 45 45 46 50 52 55 54 53 52 53 51
61 57 54 45 36 30 22 14 8 4 3 6 9 9 18 24 28 29 28 22 19 28 40 23 34 39 48 49 45 49 47 46 43 47 47 52 57 56 53 50 48 48 45
65 56 52 44 39 30 20 13 9 6 5 6 6 16 20 24 26 26 24 23 20 19 23 31 37 42 45 42 40 41 38 41 41 42 49 53 50 50 50 50 43 35 29
63 44 56 47 37 25 19 15 9 5 3 3 12 17 21 22 23 24 25 26 23 23 29 39 37 36 42 42 43 42 39 40 41 44 46 39 44 50 50 39 26 27 25
62 66 57 43 32 26 22 13 7 5 4 9 13 17 18 20 22 24 25 26 26 29 33 41 40 37 43 43 46 45 46 42 48 38 35 42 46 42 36 30 27 30 32
72 63 47 39 39 31 22 17 7 5 5 9 14 15 18 20 22 23 25 29 30 32 32 34 40 41 43 45 49 46 46 45 43 36 40 42 35 34 35 34 31 29 32
72 54 42 45 36 29 21 13 5 6 8 13 16 19 22 25 25 29 32 35 36 37 38 33 35 39 42 50 52 53 48 52 50 29 35 37 28 27 30 33 31 35 41
65 56 50 44 37 29 19 12 6 7 11 18 20 23 27 27 28 32 35 39 42 44 40 39 38 43 44 55 57 57 57 59 53 41 44 32 31 27 27 33 37 37 44
63 54 45 39 33 25 17 11 11 12 17 19 20 23 25 29 31 35 35 39 43 42 36 40 42 44 49 52 57 57 54 57 55 48 53 32 28 30 29 31 38 40 47
62 52 44 32 31 26 18 19 15 17 15 20 22 25 27 29 31 32 36 37 39 36 34 38 43 41 45 46 53 55 53 55 56 50 45 43 31 39 32 32 30 44 50
47 43 42 37 31 34 25 20 15 14 19 22 24 26 29 30 34 38 40 41 39 38 36 38 38 38 38 41 47 51 54 55 54 55 37 38 42 41 37 35 34 44 49
49 47 39 34 32 36 29 20 12 16 21 22 24 26 26 32 38 42 45 49 46 47 48 45 36 37 39 38 41 46 50 53 57 57 28 47 54 52 48 35 44 42 42
54 48 47 42 35 38 28 18 15 22 20 22 22 25 30 37 40 43 50 50 50 48 46 43 40 40 38 39 40 45 46 50 50 50 33 50 52 52 37 49 41 43 43
Wind_Direction_500mb
203 203 200 195 198 203 211 221 239 260 255 264 294 308 315 307 299 292 291 296 295 302 311 319 321 329 332 334 333 330 338 340 346 352 346 347 348 355 341 337 336 330 304
207 205 201 195 202 210 223 236 244 253 252 279 293 307 311 303 293 287 287 288 288 297 306 314 319 326 329 329 331 327 329 330 337 345 341 339 340 336 332 333 326 325 325
209 205 199 200 213 220 229 246 238 248 270 284 302 310 306 299 287 285 290 285 287 297 306 314 322 327 325 323 320 322 306 315 326 340 334 329 325 322 330 329 325 321 320
210 209 206 210 219 225 237 240 245 257 275 292 303 305 299 294 294 295 290 283 284 291 304 315 323 324 320 322 321 311 298 305 319 330 323 324 324 327 331 334 324 328 323
211 205 208 216 226 235 242 241 247 265 280 295 302 300 297 297 297 291 287 280 284 293 308 317 323 323 323 321 318 307 300 304 317 316 321 321 319 327 330 328 326 315 316
209 213 218 219 230 240 246 247 254 269 286 298 299 300 302 305 298 292 281 277 285 299 312 321 325 323 322 321 317 311 303 309 315 316 317 316 312 318 326 321 319 320 313
211 213 218 222 226 237 245 249 259 276 290 295 302 306 309 309 299 287 280 281 293 304 312 321 319 317 319 320 313 310 308 309 312 316 317 309 309 314 316 319 319 318 312
210 215 224 223 231 240 247 251 260 272 275 283 303 315 286 308 291 288 280 290 301 308 316 318 319 316 317 319 315 312 312 312 315 319 313 306 303 305 306 312 314 311 307
209 214 216 224 237 239 240 248 255 266 269 294 310 308 321 305 312 301 304 298 305 311 322 323 321 315 317 317 318 321 319 316 317 320 316 311 310 309 309 308 309 310 310
204 208 215 222 226 230 236 245 263 266 263 284 307 305 300 290 306 309 316 310 312 317 322 328 323 319 321 320 319 316 316 319 316 307 310 311 313 312 312 309 310 310 309
203 209 214 217 220 223 228 241 254 262 267 287 299 304 303 300 306 308 306 312 317 316 323 330 323 322 322 321 326 324 322 318 316 308 309 311 310 314 314 311 312 317 295
205 206 210 212 215 220 223 234 257 258 269 295 316 301 297 304 316 331 314 321 318 327 327 327 323 325 326 329 330 328 328 313 319 316 315 314 317 317 312 311 311 309 303
205 205 208 206 210 215 217 226 227 245 278 309 305 302 309 316 328 331 331 319 319 323 325 318 327 325 331 337 335 333 328 324 325 325 319 314 313 311 310 311 308 304 300
206 204 204 203 205 207 214 205 205 243 300 275 295 309 322 334 335 336 337 335 329 314 322 316 323 329 334 333 335 334 333 332 328 323 321 317 313 312 312 311 308 305 300
203 197 199 195 207 205 193 189 194 192 222 274 294 339 346 338 336 337 338 337 330 321 324 323 330 326 331 331 330 332 332 333 332 325 325 321 317 315 315 315 316 317 313
199 192 192 190 197 179 166 173 161 161 257 284 350 353 344 342 340 344 345 341 332 319 301 316 322 328 339 337 335 339 338 338 338 330 323 321 325 323 321 318 319 326 323
197 195 188 189 179 158 158 171 157 200 248 357 2 355 353 348 352 351 348 345 341 329 312 325 325 329 341 340 340 340 339 338 339 333 333 337 338 332 328 326 328 322 314
197 178 179 171 163 160 161 156 156 162 102 11 17 7 357 1 3 0 357 349 347 339 329 331 333 337 343 342 340 339 340 345 342 340 335 337 342 347 355 354 337 329 322
173 168 164 166 154 156 154 132 117 107 43 40 21 13 20 21 15 8 5 355 346 348 342 332 332 341 340 338 343 344 342 350 347 345 345 347 353 3 2 2 357 351 338
165 158 159 158 151 145 124 96 146 107 72 38 36 32 31 28 20 13 5 357 353 355 350 345 337 341 342 341 348 348 350 354 354 346 359 358 357 355 357 356 355 358 350
148 153 155 150 143 130 108 123 118 101 62 55 47 41 35 23 18 18 9 5 3 3 356 351 347 343 342 349 351 350 349 352 355 350 350 343 346 350 350 3 359 348 347
142 145 146 131 128 130 129 131 145 89 69 62 56 48 37 34 28 22 16 13 9 5 356 352 345 340 342 350 349 348 345 346 349 351 348 345 333 341 332 333 346 342 338
137 138 135 136 133 128 136 134 107 83 78 68 58 47 39 31 33 26 22 17 17 10 356 349 343 340 342 347 345 348 347 337 334 343 337 346 337 336 337 341 346 346 348
133 139 134 139 130 128 123 111 98 88 80 67 56 46 39 28 29 25 22 19 15 8 356 346 343 339 338 344 341 342 339 337 338 348 336 323 346 340 354 2 355 348 352
142 137 132 133 144 130 120 112 99 92 75 65 51 45 37 30 25 22 17 20 14 4 360 354 349 348 345 342 340 340 338 341 342 349 347 332 341 336 343 346 349 349 359
140 144 141 140 138 125 122 114 103 80 71 60 48 43 37 32 24 20 19 15 12 5 4 5 359 349 348 353 355 351 346 346 342 341 344 332 339 345 333 348 2 2 1
Wind_Speed_850mb
42 37 30 27 28 25 19 17 16 16 12 11 17 23 24 22 19 18 21 23 21 24 27 30 36 38 43 40 42 44 44 39 44 39 46 42 53 45 48 35 37 33 25
39 35 30 28 26 22 18 19 20 17 13 17 20 24 22 21 22 22 25 24 25 28 28 33 37 39 42 41 40 40 42 44 42 38 43 41 41 41 45 37 35 36 34
40 33 32 29 26 22 18 15 15 14 14 19 22 24 21 21 24 26 29 28 27 30 32 37 39 43 43 41 37 27 41 42 44 40 43 45 46 54 44 40 37 37 35
40 35 33 30 26 22 18 17 18 15 18 22 25 23 24 24 26 29 30 28 28 27 32 35 39 45 45 42 34 25 39 38 38 41 40 48 50 50 42 34 38 38 41
40 35 31 29 26 21 19 20 20 18 21 25 24 22 23 25 27 30 28 25 26 28 30 37 44 47 42 39 34 30 30 34 38 40 42 50 55 50 41 33 33 35 39
44 39 32 28 24 22 20 22 22 22 22 23 20 22 23 22 23 24 22 23 26 27 33 42 52 50 44 36 36 36 34 32 37 42 46 49 46 46 48 39 34 36 40
43 38 33 28 27 25 23 24 24 23 23 19 18 21 21 21 23 21 23 26 26 32 38 47 50 45 42 43 42 41 41 46 43 47 48 48 45 48 42 40 43 39 38
45 39 33 31 29 26 25 27 25 23 21 16 12 14 7 21 23 26 28 28 32 36 41 51 47 47 43 43 45 44 47 52 54 44 39 43 43 39 42 46 47 46 45
49 40 34 29 25 24 26 24 21 18 18 16 13 9 9 7 21 20 24 27 29 35 48 44 44 41 41 45 48 46 54 53 46 38 38 40 42 42 44 48 50 50 47
50 43 35 29 27 25 22 20 20 18 13 13 14 18 16 18 10 15 19 28 29 39 38 35 36 37 48 47 50 57 54 38 33 37 41 44 46 46 47 48 49 49 43
51 44 37 33 28 26 22 17 17 13 12 10 12 16 15 16 17 13 30 23 32 32 32 27 33 36 43 49 52 45 41 40 42 44 47 48 47 48 47 47 48 37 40
52 46 41 36 32 27 24 19 13 14 10 8 7 9 13 11 17 14 23 36 36 28 36 26 27 31 38 45 41 39 37 40 43 44 45 47 47 47 50 49 42 37 40
55 52 47 43 36 33 24 17 11 8 5 6 7 10 14 18 19 19 22 31 35 33 20 20 23 29 37 40 42 48 44 45 45 44 43 46 49 50 50 49 45 43 42
63 56 53 46 38 30 22 15 8 5 3 4 7 11 14 20 25 28 24 28 36 27 28 30 30 29 39 43 48 51 47 47 45 45 46 50 52 55 54 53 52 53 51
61 57 54 45 36 30 22 14 8 4 3 6 9 9 18 24 28 29 28 22 19 28 40 23 34 39 48 49 45 49 47 46 43 47 47 52 57 56 53 50 48 48 45
65 56 52 44 39 30 20 13 9 6 5 6 6 16 20 24 26 26 24 23 20 19 23 31 37 42 45 42 40 41 38 41 41 42 49 53 50 50 50 50 43 35 29
63 44 56 47 37 25 19 15 9 5 3 3 12 17 21 22 23 24 25 26 23 23 29 39 37 36 42 42 43 42 39 40 41 44 46 39 44 50 50 39 26 27 25
62 66 57 43 32 26 22 13 7 5 4 9 13 17 18 20 22 24 25 26 26 29 33 41 40 37 43 43 46 45 46 42 48 38 35 42 46 42 36 30 27 30 32
72 63 47 39 39 31 22 17 7 5 5 9 14 15 18 20 22 23 25 29 30 32 32 34 40 41 43 45 49 46 46 45 43 36 40 42 35 34 35 34 31 29 32
72 54 42 45 36 29 21 13 5 6 8 13 16 19 22 25 25 29 32 35 36 37 38 33 35 39 42 50 52 53 48 52 50 29 35 37 28 27 30 33 31 35 41
65 56 50 44 37 29 19 12 6 7 11 18 20 23 27 27 28 32 35 39 42 44 40 39 38 43 44 55 57 57 57 59 53 41 44 32 31 27 27 33 37 37 44
63 54 45 39 33 25 17 11 11 12 17 19 20 23 25 29 31 35 35 39 43 42 36 40 42 44 49 52 57 57 54 57 55 48 53 32 28 30 29 31 38 40 47
62 52 44 32 31 26 18 19 15 17 15 20 22 25 27 29 31 32 36 37 39 36 34 38 43 41 45 46 53 55 53 55 56 50 45 43 31 39 32 32 30 44 50
47 43 42 37 31 34 25 20 15 14 19 22 24 26 29 30 34 38 40 41 39 38 36 38 38 38 38 41 47 51 54 55 54 55 37 38 42 41 37 35 34 44 49
49 47 39 34 32 36 29 20 12 16 21 22 24 26 26 32 38 42 45 49 46 47 48 45 36 37 39 38 41 46 50 53 57 57 28 47 54 52 48 35 44 42 42
54 48 47 42 35 38 28 18 15 22 20 22 22 25 30 37 40 43 50 50 50 48 46 43 40 40 38 39 40 45 46 50 50 50 33 50 52 52 37 49 41 43 43
Wind_Direction_850mb
203 203 200 195 198 203 211 221 239 260 255 264 294 308 315 307 299 292 291 296 295 302 311 319 321 329 332 334 333 330 338 340 346 352 346 347 348 355 341 337 336 330 304
207 205 201 195 202 210 223 236 244 253 252 279 293 307 311 303 293 287 287 288 288 297 306 314 319 326 329 329 331 327 329 330 337 345 341 339 340 336 332 333 326 325 325
209 205 199 200 213 220 229 246 238 248 270 284 302 310 306 299 287 285 290 285 287 297 306 314 322 327 325 323 320 322 306 315 326 340 334 329 325 322 330 329 325 321 320
210 209 206 210 219 225 237 240 245 257 275 292 303 305 299 294 294 295 290 283 284 291 304 315 323 324 320 322 321 311 298 305 319 330 323 324 324 327 331 334 324 328 323
211 205 208 216 226 235 242 241 247 265 280 295 302 300 297 297 297 291 287 280 284 293 308 317 323 323 323 321 318 307 300 304 317 316 321 321 319 327 330 328 326 315 316
209 213 218 219 230 240 246 247 254 269 286 298 299 300 302 305 298 292 281 277 285 299 312 321 325 323 322 321 317 311 303 309 315 316 317 316 312 318 326 321 319 320 313
211 213 218 222 226 237 245 249 259 276 290 295 302 306 309 309 299 287 280 281 293 304 312 321 319 317 319 320 313 310 308 309 312 316 317 309 309 314 316 319 319 318 312
210 215 224 223 231 240 247 251 260 272 275 283 303 315 286 308 291 288 280 290 301 308 316 318 319 316 317 319 315 312 312 312 315 319 313 306 303 305 306 312 314 311 307
209 214 216 224 237 239 240 248 255 266 269 294 310 308 321 305 312 301 304 298 305 311 322 323 321 315 317 317 318 321 319 316 317 320 316 311 310 309 309 308 309 310 310
204 208 215 222 226 230 236 245 263 266 263 284 307 305 300 290 306 309 316 310 312 317 322 328 323 319 321 320 319 316 316 319 316 307 310 311 313 312 312 309 310 310 309
203 209 214 217 220 223 228 241 254 262 267 287 299 304 303 300 306 308 306 312 317 316 323 330 323 322 322 321 326 324 322 318 316 308 309 311 310 314 314 311 312 317 295
205 206 210 212 215 220 223 234 257 258 269 295 316 301 297 304 316 331 314 321 318 327 327 327 323 325 326 329 330 328 328 313 319 316 315 314 317 317 312 311 311 309 303
205 205 208 206 210 215 217 226 227 245 278 309 305 302 309 316 328 331 331 319 319 323 325 318 327 325 331 337 335 333 328 324 325 325 319 314 313 311 310 311 308 304 300
206 204 204 203 205 207 214 205 205 243 300 275 295 309 322 334 335 336 337 335 329 314 322 316 323 329 334 333 335 334 333 332 328 323 321 317 313 312 312 311 308 305 300
203 197 199 195 207 205 193 189 194 192 222 274 294 339 346 338 336 337 338 337 330 321 324 323 330 326 331 331 330 332 332 333 332 325 325 321 317 315 315 315 316 317 313
199 192 192 190 197 179 166 173 161 161 257 284 350 353 344 342 340 344 345 341 332 319 301 316 322 328 339 337 335 339 338 338 338 330 323 321 325 323 321 318 319 326 323
197 195 188 189 179 158 158 171 157 200 248 357 2 355 353 348 352 351 348 345 341 329 312 325 325 329 341 340 340 340 339 338 339 333 333 337 338 332 328 326 328 322 314
197 178 179 171 163 160 161 156 156 162 102 11 17 7 357 1 3 0 357 349 347 339 329 331 333 337 343 342 340 339 340 345 342 340 335 337 342 347 355 354 337 329 322
173 168 164 166 154 156 154 132 117 107 43 40 21 13 20 21 15 8 5 355 346 348 342 332 332 341 340 338 343 344 342 350 347 345 345 347 353 3 2 2 357 351 338
165 158 159 158 151 145 124 96 146 107 72 38 36 32 31 28 20 13 5 357 353 355 350 345 337 341 342 341 348 348 350 354 354 346 359 358 357 355 357 356 355 358 350
148 153 155 150 143 130 108 123 118 101 62 55 47 41 35 23 18 18 9 5 3 3 356 351 347 343 342 349 351 350 349 352 355 350 350 343 346 350 350 3 359 348 347
142 145 146 131 128 130 129 131 145 89 69 62 56 48 37 34 28 22 16 13 9 5 356 352 345 340 342 350 349 348 345 346 349 351 348 345 333 341 332 333 346 342 338
137 138 135 136 133 128 136 134 107 83 78 68 58 47 39 31 33 26 22 17 17 10 356 349 343 340 342 347 345 348 347 337 334 343 337 346 337 336 337 341 346 346 348
133 139 134 139 130 128 123 111 98 88 80 67 56 46 39 28 29 25 22 19 15 8 356 346 343 339 338 344 341 342 339 337 338 348 336 323 346 340 354 2 355 348 352
142 137 132 133 144 130 120 112 99 92 75 65 51 45 37 30 25 22 17 20 14 4 360 354 349 348 345 342 340 340 338 341 342 349 347 332 341 336 343 346 349 349 359
140 144 141 140 138 125 122 114 103 80 71 60 48 43 37 32 24 20 19 15 12 5 4 5 359 349 348 353 355 351 346 346 342 341 344 332 339 345 333 348 2 2 1